Regional Weather Roundup
Issued by NWS Bismarck, ND

Home | Current Version | Previous Version | Text Only | Print | Product List | Glossary On
Versions: 1 2 3 4 5 6 7 8 9 10 11 12 13 14 15 16 17 18 19 20 21 22 23 24 25 26 27 28 29 30 31 32 33 34 35 36 37 38 39 40 41 42 43 44 45 46 47 48 49 50
235
ASUS43 KBIS 232102
RWRBIS

NWR BROADCAST TEXT
NATIONAL WEATHER SERVICE BISMARCK ND
400 PM CDT THU MAR 23 2017

NOTE: "FAIR" INDICATES FEW OR NO CLOUDS BELOW 12,000 FEET WITH NO
SIGNIFICANT WEATHER AND/OR OBSTRUCTIONS TO VISIBILITY.


CITY           SKY/WX    TMP DP  RH WIND       PRES   REMARKS
WILLISTON      FAIR      56  38  50 NE7       29.75S
MINOT          FAIR      42  34  73 N10       29.75S
MINOT AFB      FAIR      40  34  79 N9        29.75R
BISMARCK       CLOUDY    41  37  86 N7        29.73F
DICKINSON      CLOUDY    48  38  68 NE5       29.73F
GARRISON         N/A     42  33  70 W5        29.75R
HETTINGER ARPT CLOUDY    45  39  79 NE21G28   29.74F
JAMESTOWN      LGT RAIN  43  38  82 NE8       29.70F
HAZEN          MOCLDY    45  34  65 NW8       29.77R
MANDAN         CLOUDY    39  39 100 N9        29.72F
RUGBY            N/A     36  34  93 NW3       29.76R
STANLEY        FAIR      50  37  62 N7        29.77S
TIOGA          FAIR      50  41  71 NE7       29.77S
WATFORD CITY   FAIR      52  41  66 NE8       29.75R
$$

CITY           SKY/WX    TMP DP  RH WIND       PRES   REMARKS
GRAND FORKS    LGT RAIN  36  35  96 SE14      29.75F
GRAND FORKS AF PTSUNNY   35  35  99 E5        29.75F
DEVILS LAKE    PTSUNNY   36  33  89 NW6       29.77R
FARGO          CLOUDY    38  33  82 SE13      29.79F
GRAFTON        FAIR      36  36 100 S8        29.81R
GWINNER        CLOUDY    37  37 100 MISG      29.74S FOG
ROLLA          FAIR      36  36 100 CALM      29.76S
$$

CITY           SKY/WX    TMP DP  RH WIND       PRES   REMARKS
ABERDEEN       CLOUDY    43  33  68 SE10      29.70F
MOBRIDGE       FAIR      61  35  37 N15       29.63R
BUFFALO          N/A     45  41  86 N20       29.69R
RAPID CITY     FAIR      54  43  66 N36G43    29.66R
GLASGOW        FAIR      60  30  32 NW12      29.76F
SIDNEY         FAIR      59  41  51 E5        29.74F
WOLF POINT     FAIR      64  35  34 VRB3      29.73F
GLENDIVE       CLOUDY    60  39  45 N9        29.74F
MILES CITY     FAIR      56  44  64 W12       29.77S
BAKER          PTSUNNY   52  36  54 E8        29.77F
$$

CITY           SKY/WX    TMP DP  RH WIND       PRES   REMARKS
BILLINGS       PTSUNNY   54  35  48 VRB3      29.81F
GREAT FALLS    FAIR      55  15  20 W10G26    29.84F
$$





USA.gov is the U.S. government's official web portal to all federal, state and local government web resources and services.